Wind_Speed
5 8 6 10 18 18 13 17 10 4 9 6 12 11 9 14 12 13 11 11 12 13 12 12 13 13 12 10 9 7 5 4 6 8 9 10 12 14 15 16 17 19 18 18 17 16 16 17 17
6 5 10 12 21 16 13 13 10 6 8 9 9 7 8 10 10 11 12 9 12 12 12 12 12 12 10 10 9 7 6 4 4 7 9 10 11 12 14 15 16 17 17 17 16 16 16 16 16
7 8 5 17 14 19 15 10 6 7 7 8 9 5 10 9 7 11 9 11 12 12 12 12 12 12 10 10 10 8 6 5 5 6 9 10 13 14 14 15 16 15 15 16 16 16 14 14 15
5 9 7 10 21 16 13 10 8 10 8 7 6 6 7 8 9 7 9 11 13 11 11 11 12 11 10 12 12 11 8 7 8 8 10 12 13 14 15 15 16 17 14 11 17 16 16 15 15
9 3 11 19 14 9 9 8 6 10 7 8 6 7 6 8 8 7 9 12 13 11 11 11 12 12 13 15 15 14 12 10 10 10 12 12 13 15 15 16 16 17 17 21 16 15 16 16 17
5 9 9 7 6 5 7 7 3 6 4 5 5 5 5 6 9 8 9 10 11 11 11 11 12 13 13 15 16 17 16 13 11 11 12 12 14 14 15 16 18 19 22 21 17 15 16 16 16
8 7 7 2 2 6 5 8 4 2 6 4 5 4 4 6 7 7 9 10 10 11 11 11 12 12 13 15 15 16 16 15 13 12 10 11 13 14 15 16 18 19 18 16 16 16 14 15 14
10 2 13 8 1 1 3 7 8 4 4 4 5 5 6 6 4 6 8 9 10 10 12 11 11 11 12 13 16 16 16 14 13 12 11 9 13 13 15 16 18 17 16 15 15 15 13 14 13
14 8 12 7 4 4 7 7 10 13 7 5 3 5 4 5 4 5 7 10 8 10 11 12 11 12 10 10 14 17 17 15 13 14 17 18 16 15 16 16 16 15 14 15 14 12 13 13 13
16 1 13 10 6 3 9 4 11 18 10 6 4 6 6 4 6 4 9 6 8 10 12 10 11 12 11 8 10 16 17 15 13 14 17 18 16 14 16 15 14 14 14 13 12 13 11 11 13
13 6 8 4 2 3 6 5 3 20 13 9 8 8 7 4 5 5 3 4 7 8 9 9 13 13 11 8 9 14 18 15 15 14 16 16 15 15 13 13 11 11 10 13 11 13 12 12 15
15 6 7 2 4 7 5 6 3 17 10 12 8 7 8 8 6 5 4 4 5 7 6 8 11 9 8 16 12 12 17 14 16 17 17 15 14 13 12 9 8 9 8 12 12 11 12 15 16
13 6 9 2 3 2 4 7 6 17 19 13 11 9 10 7 8 3 3 5 1 6 4 9 6 8 18 13 13 14 15 11 16 18 17 14 14 12 11 9 8 10 8 10 11 13 15 17 20
14 10 12 6 5 5 4 6 9 16 21 15 11 11 12 11 9 6 4 8 5 3 5 7 12 20 11 15 14 15 13 11 17 15 16 15 15 13 12 11 10 10 13 14 17 16 14 18 23
21 18 16 10 9 6 5 6 12 20 20 20 17 12 13 13 11 9 5 4 6 3 3 5 12 14 13 16 18 19 11 12 14 14 16 16 16 15 14 17 14 11 15 16 17 19 17 21 24
23 20 18 14 9 9 6 7 10 15 21 27 20 13 13 15 12 8 5 7 7 3 4 6 9 13 14 14 18 16 14 12 11 14 12 15 16 15 17 21 20 14 14 16 19 20 21 21 21
23 22 21 17 10 8 13 9 8 8 26 27 19 15 15 15 13 11 8 6 6 5 2 5 5 9 13 11 11 15 14 15 15 14 11 14 17 17 17 19 22 19 17 17 21 21 22 20 18
18 14 15 15 15 13 12 15 15 16 19 26 19 16 16 14 15 14 11 8 7 7 5 6 5 7 11 10 11 12 12 13 14 13 13 15 16 18 17 16 19 20 22 21 20 20 19 18 17
20 13 14 21 19 15 14 16 12 11 21 30 25 21 17 16 17 17 14 12 10 8 7 7 6 7 9 11 10 12 13 12 12 13 14 14 15 17 17 16 16 17 19 19 21 18 16 15 15
29 27 25 28 22 24 19 17 17 16 14 35 26 20 16 16 16 16 15 14 13 10 7 8 7 6 10 9 8 12 11 11 10 13 14 14 16 17 17 17 16 16 16 14 15 17 15 15 14
31 29 27 18 23 25 19 16 19 20 19 31 24 24 18 14 14 15 17 16 15 12 9 8 7 6 7 8 6 8 10 9 10 10 11 13 15 15 14 15 14 13 14 13 11 11 13 12 11
32 21 28 23 25 21 6 13 16 17 18 39 29 27 20 15 16 16 17 16 17 15 12 8 8 8 7 9 7 6 5 8 7 8 10 12 13 15 13 13 13 11 11 12 11 10 10 10 7
33 18 25 29 21 29 11 10 14 16 20 34 27 24 23 19 19 19 15 17 17 16 16 13 10 9 9 11 12 7 5 7 5 6 6 9 10 12 13 11 10 12 11 11 13 12 12 9 8
31 25 24 21 21 24 11 15 18 17 18 22 30 31 22 20 18 16 16 15 17 17 16 15 13 9 8 7 11 9 5 6 5 5 6 8 9 10 9 11 10 9 11 11 9 11 10 9 6
42 31 19 23 30 7 3 18 23 23 22 8 34 30 26 19 19 19 19 17 14 16 17 16 15 13 10 9 11 9 8 8 7 5 4 5 8 11 12 8 10 9 8 10 10 9 9 7 7
44 41 31 24 21 6 13 24 24 24 22 28 33 39 22 28 24 24 24 20 18 16 19 17 17 15 14 12 12 14 12 10 8 6 3 4 2 4 8 8 8 9 9 8 9 10 10 10 8
47 45 33 20 10 21 25 26 19 24 18 23 27 17 20 26 27 26 20 22 19 20 14 15 20 19 15 14 12 14 15 12 10 7 5 1 1 2 4 4 5 7 9 9 9 7 6 8 7
49 52 36 32 28 26 26 28 29 28 28 25 16 30 16 17 18 18 24 28 16 14 14 16 19 21 23 19 16 14 15 15 13 11 8 5 4 3 2 4 5 7 6 9 9 10 7 6 5
43 45 45 37 33 32 23 26 27 32 30 29 24 23 27 18 16 11 10 15 11 17 16 16 21 21 22 23 21 20 18 16 15 14 12 8 5 7 7 5 6 5 5 6 8 8 8 7 7
36 40 45 41 34 29 31 28 28 26 34 31 29 28 23 32 18 16 15 16 17 18 18 17 15 25 24 26 25 24 21 20 17 14 13 12 10 9 7 6 7 7 6 8 7 8 8 9 9
Wind_Direction
1 359 67 76 127 126 119 109 122 96 127 105 108 101 89 100 108 97 87 89 85 87 85 83 88 88 81 73 69 71 79 105 125 125 118 118 91 90 89 91 96 102 98 93 93 96 95 96 94
17 49 66 127 121 129 127 119 129 98 98 97 76 97 90 96 109 95 98 81 78 80 89 91 91 82 66 56 55 69 88 115 138 130 121 105 103 89 87 87 89 94 95 96 96 97 97 96 94
51 80 34 154 128 125 125 126 131 100 110 110 98 100 101 110 90 99 89 83 74 69 75 84 77 69 55 52 68 75 96 109 127 130 119 100 99 100 94 88 88 88 95 102 99 99 100 93 89
69 59 22 122 119 118 149 136 129 100 102 108 119 118 106 96 96 90 85 80 74 70 78 78 69 59 61 71 67 73 75 95 126 130 121 110 104 106 99 92 85 87 88 119 104 100 104 98 90
74 83 40 80 115 106 137 159 162 95 99 107 125 108 110 97 105 89 81 82 78 74 79 74 62 60 68 70 75 74 76 84 108 119 117 109 101 104 101 95 91 92 94 109 113 101 99 99 100
107 96 99 48 79 135 128 189 87 150 131 90 115 121 115 112 111 102 97 90 86 83 77 70 65 72 76 76 74 80 80 81 89 104 109 110 107 111 107 104 99 97 101 120 102 100 95 97 93
112 48 84 85 105 67 182 208 169 167 145 118 123 146 138 115 116 94 90 87 92 86 84 74 77 84 87 82 80 83 85 89 93 95 101 112 115 117 113 110 107 108 107 108 105 100 98 94 93
176 333 135 144 280 49 232 221 226 201 149 139 140 186 159 125 121 99 99 88 83 88 86 81 90 89 89 92 95 93 88 89 89 92 86 113 123 119 118 110 112 110 111 108 123 107 105 99 88
191 306 136 142 184 230 278 276 236 204 191 172 170 188 190 152 119 68 87 77 87 86 85 88 94 95 97 87 95 102 95 86 92 93 87 97 112 117 114 111 111 110 107 107 111 108 106 103 95
198 347 166 154 155 186 244 229 236 198 209 201 176 196 185 131 126 85 99 80 90 90 83 105 95 102 101 103 106 106 102 97 93 97 98 95 103 108 114 115 115 120 117 116 117 117 116 107 97
202 211 71 111 117 306 292 305 238 214 204 195 191 197 183 146 128 110 101 110 85 89 101 98 102 99 89 106 126 110 103 100 96 102 101 103 108 112 109 114 116 116 121 120 130 123 118 116 105
192 331 258 220 356 306 284 251 232 224 199 180 190 199 179 164 162 162 117 78 105 116 98 98 103 72 109 106 121 113 104 105 105 106 102 106 109 107 107 101 109 111 129 142 135 126 119 111 111
203 211 274 244 287 15 306 223 228 205 203 193 187 199 182 195 156 182 137 104 49 72 64 84 94 124 88 105 117 105 107 120 116 111 105 100 93 95 97 94 97 111 140 130 128 123 126 132 116
197 194 211 176 259 224 233 226 245 207 224 206 189 195 188 187 176 176 202 143 156 77 65 82 77 83 97 100 113 93 109 134 125 114 107 99 95 91 91 98 108 112 115 112 111 123 124 124 113
207 173 225 222 228 227 241 240 214 220 207 198 193 199 193 193 171 193 190 165 128 119 119 54 81 85 88 86 83 92 111 131 128 110 107 99 98 96 87 80 87 92 113 112 121 131 124 119 113
209 183 196 215 213 234 224 256 243 240 223 238 185 195 206 198 167 181 188 179 165 151 107 59 48 79 77 86 84 134 100 122 144 115 106 101 97 94 87 83 89 88 95 117 120 115 114 110 112
227 217 224 238 219 257 233 232 258 246 230 226 206 192 208 205 177 181 185 189 163 156 154 104 64 66 84 83 91 99 115 113 129 125 115 108 108 101 93 90 92 94 95 101 106 112 113 116 117
227 230 232 230 243 254 256 247 242 278 223 206 217 192 205 200 187 186 181 178 167 170 179 136 108 89 99 98 93 100 107 110 108 125 120 112 113 112 106 99 99 102 107 108 109 109 116 120 118
204 169 224 229 239 243 251 259 255 251 210 204 206 197 201 195 198 190 184 175 167 178 179 153 137 124 110 100 93 99 107 129 121 126 117 114 116 114 117 113 106 109 110 110 103 107 110 117 119
202 189 210 237 216 229 240 238 247 238 221 201 201 196 194 200 204 194 193 179 171 172 176 169 163 140 118 115 113 103 97 105 119 123 125 117 113 120 127 127 123 121 115 117 119 117 121 123 125
203 195 209 222 236 238 218 242 240 254 238 198 201 190 192 197 201 200 197 184 177 175 171 182 181 144 129 117 101 73 86 89 103 119 128 131 125 119 123 126 134 141 133 133 123 128 121 116 131
197 205 225 254 258 250 230 248 244 223 228 195 200 194 187 201 197 198 194 195 186 182 171 181 191 166 164 139 112 100 108 102 97 115 137 139 136 130 127 129 127 132 145 149 139 129 121 118 127
185 194 231 245 264 274 221 259 256 233 222 201 199 180 188 192 208 200 197 196 200 191 183 187 184 194 186 155 140 146 128 124 110 110 122 128 135 133 129 128 132 129 126 134 139 142 138 135 138
176 196 237 226 229 220 228 243 237 226 237 233 205 183 184 194 204 204 209 196 207 199 196 196 192 191 199 184 156 166 172 113 132 142 133 133 127 132 133 133 137 138 136 135 135 137 139 139 133
184 200 202 227 221 202 170 252 239 227 266 207 165 174 182 204 199 198 206 187 207 205 204 203 203 199 202 194 186 177 161 172 171 148 132 151 143 144 136 143 137 145 149 141 144 139 143 136 131
193 201 197 211 208 181 252 248 244 260 278 289 290 190 181 189 195 190 209 202 187 204 207 206 209 209 210 207 196 191 192 180 152 151 160 218 134 119 130 138 146 144 147 148 146 148 146 144 144
192 202 201 201 206 240 247 243 251 255 268 287 272 199 207 206 213 191 201 209 184 190 210 213 221 209 220 226 212 205 201 196 183 191 191 210 112 125 111 131 151 149 153 154 148 148 153 149 145
198 202 191 199 198 204 226 239 250 257 266 276 275 285 218 180 208 223 208 210 188 186 192 233 228 223 214 215 226 222 215 207 195 190 199 175 148 83 173 182 195 151 160 162 157 151 159 165 170
210 208 197 195 196 204 235 251 245 244 246 251 260 271 271 239 210 220 235 239 219 224 232 225 259 228 227 228 222 219 222 218 208 200 191 184 179 144 181 229 204 189 174 187 169 160 169 172 183
212 214 204 200 204 209 230 251 254 239 238 244 239 252 254 247 239 245 245 248 246 235 232 237 247 223 230 223 218 231 224 221 218 216 199 185 196 196 186 170 218 202 203 217 190 179 188 189 190
Height
5889 5888 5886 5886 5889 5888 5889 5890 5887 5888 5888 5889 5890 5892 5893 5893 5895 5897 5896 5896 5896 5896 5897 5898 5898 5898 5900 5900 5899 5899 5899 5899 5900 5902 5902 5902 5902 5903 5904 5905 5906 5906 5907 5907 5907 5909 5908 5909 5909
5889 5886 5885 5887 5887 5889 5891 5890 5891 5889 5889 5894 5894 5895 5894 5897 5897 5897 5899 5900 5899 5899 5899 5900 5900 5901 5901 5901 5900 5899 5899 5900 5901 5902 5904 5904 5904 5904 5906 5907 5908 5909 5909 5910 5911 5911 5912 5913 5914
5890 5889 5883 5885 5880 5890 5889 5891 5892 5892 5893 5894 5897 5897 5899 5900 5899 5899 5900 5900 5901 5901 5901 5901 5902 5903 5902 5901 5900 5900 5900 5900 5901 5903 5905 5905 5906 5908 5910 5910 5911 5911 5912 5912 5913 5914 5915 5916 5916
5891 5893 5886 5881 5886 5894 5895 5894 5893 5894 5895 5896 5897 5899 5900 5901 5900 5902 5902 5902 5902 5903 5903 5903 5903 5904 5903 5901 5900 5900 5900 5901 5902 5904 5906 5908 5908 5910 5911 5912 5912 5912 5913 5914 5915 5917 5918 5918 5919
5893 5891 5888 5883 5891 5895 5895 5896 5894 5897 5897 5898 5899 5901 5900 5902 5902 5903 5904 5903 5903 5904 5904 5905 5906 5906 5905 5904 5902 5902 5903 5903 5904 5906 5908 5909 5910 5912 5913 5914 5914 5914 5914 5916 5918 5919 5920 5921 5922
5894 5895 5895 5892 5896 5898 5897 5896 5897 5898 5898 5898 5900 5901 5903 5904 5904 5905 5906 5906 5906 5906 5907 5907 5907 5907 5908 5908 5906 5905 5906 5907 5908 5908 5909 5911 5912 5913 5915 5916 5916 5916 5917 5918 5920 5922 5923 5924 5924
5895 5895 5896 5896 5898 5898 5898 5896 5898 5899 5900 5900 5902 5902 5904 5905 5906 5906 5907 5907 5907 5909 5908 5909 5908 5907 5907 5909 5910 5910 5910 5910 5910 5911 5911 5912 5914 5915 5916 5917 5918 5919 5920 5922 5923 5924 5925 5926 5927
5895 5895 5895 5897 5897 5898 5899 5897 5899 5897 5901 5901 5902 5903 5903 5906 5906 5908 5910 5909 5910 5910 5908 5910 5909 5910 5910 5909 5910 5912 5913 5913 5913 5914 5914 5914 5915 5917 5918 5920 5921 5922 5923 5924 5925 5927 5927 5928 5929
5891 5891 5890 5895 5897 5897 5898 5898 5899 5897 5900 5902 5903 5904 5905 5905 5909 5909 5911 5910 5912 5909 5911 5911 5911 5912 5913 5914 5913 5912 5914 5917 5917 5916 5917 5917 5919 5920 5921 5923 5923 5924 5925 5927 5929 5930 5930 5931 5931
5891 5893 5890 5895 5896 5899 5898 5899 5899 5900 5901 5903 5904 5904 5905 5909 5910 5912 5914 5912 5912 5911 5913 5912 5914 5914 5915 5917 5918 5916 5915 5918 5920 5920 5920 5921 5923 5924 5924 5925 5925 5926 5927 5929 5929 5930 5931 5933 5935
5891 5893 5895 5895 5894 5896 5896 5897 5897 5900 5902 5904 5905 5904 5906 5910 5910 5914 5915 5916 5913 5912 5914 5913 5916 5919 5919 5919 5920 5919 5918 5920 5922 5923 5923 5924 5925 5926 5927 5926 5927 5929 5930 5930 5930 5931 5932 5934 5936
5890 5893 5894 5895 5893 5897 5895 5895 5896 5899 5892 5900 5905 5905 5907 5910 5913 5915 5916 5915 5915 5915 5916 5917 5918 5920 5920 5920 5923 5921 5919 5923 5924 5926 5926 5927 5928 5928 5928 5928 5929 5932 5932 5931 5933 5934 5936 5935 5938
5887 5891 5888 5892 5896 5896 5895 5895 5897 5899 5901 5902 5904 5906 5906 5908 5912 5914 5916 5917 5916 5917 5918 5920 5919 5921 5920 5925 5922 5922 5921 5926 5926 5928 5928 5930 5930 5931 5931 5930 5932 5933 5932 5936 5937 5937 5938 5939 5940
5882 5887 5875 5890 5896 5896 5896 5896 5897 5901 5901 5903 5904 5906 5907 5909 5912 5916 5918 5921 5920 5918 5919 5922 5923 5924 5927 5925 5925 5926 5927 5930 5929 5930 5932 5932 5932 5933 5933 5933 5933 5935 5937 5938 5938 5940 5943 5943 5942
5880 5885 5886 5892 5895 5894 5896 5896 5896 5899 5900 5901 5904 5906 5907 5910 5913 5916 5919 5921 5920 5919 5921 5920 5926 5925 5927 5926 5927 5927 5932 5934 5933 5934 5935 5936 5935 5935 5936 5937 5935 5935 5938 5939 5941 5943 5946 5946 5945
5881 5884 5883 5888 5893 5892 5895 5895 5896 5896 5896 5892 5902 5904 5908 5909 5913 5917 5920 5923 5923 5921 5921 5922 5922 5927 5926 5927 5929 5932 5936 5935 5937 5937 5938 5938 5938 5939 5940 5940 5940 5940 5940 5943 5946 5948 5949 5949 5951
5882 5884 5882 5886 5891 5893 5894 5894 5895 5895 5896 5895 5901 5903 5909 5911 5915 5916 5920 5924 5924 5923 5925 5927 5927 5928 5929 5929 5934 5936 5937 5936 5937 5939 5942 5941 5941 5943 5945 5944 5945 5945 5945 5945 5947 5949 5951 5953 5955
5883 5884 5884 5884 5888 5891 5891 5893 5894 5894 5894 5892 5900 5901 5907 5910 5915 5918 5921 5925 5926 5926 5928 5929 5931 5932 5933 5934 5935 5939 5939 5939 5940 5942 5942 5942 5944 5945 5947 5949 5949 5950 5950 5953 5954 5954 5955 5957 5959
5880 5884 5883 5881 5885 5888 5889 5890 5892 5894 5894 5893 5896 5901 5906 5909 5912 5917 5921 5924 5927 5928 5929 5930 5932 5934 5935 5937 5939 5939 5941 5943 5943 5944 5944 5944 5946 5946 5948 5951 5953 5954 5954 5956 5957 5958 5960 5961 5962
5874 5871 5875 5878 5879 5883 5886 5887 5889 5892 5894 5893 5898 5902 5905 5909 5913 5916 5921 5924 5927 5928 5930 5931 5932 5934 5937 5939 5941 5943 5943 5945 5946 5946 5947 5946 5948 5949 5949 5951 5955 5957 5957 5960 5960 5961 5962 5963 5965
5871 5870 5873 5875 5878 5879 5880 5885 5886 5890 5890 5889 5895 5898 5903 5908 5912 5917 5920 5924 5925 5928 5930 5931 5934 5936 5938 5938 5941 5943 5945 5946 5947 5947 5950 5949 5948 5949 5952 5953 5955 5958 5959 5961 5963 5964 5965 5965 5967
5867 5870 5866 5870 5874 5874 5879 5883 5884 5885 5888 5887 5891 5898 5901 5907 5911 5914 5918 5923 5923 5926 5929 5931 5934 5936 5937 5940 5942 5943 5945 5946 5949 5950 5950 5951 5951 5950 5953 5955 5956 5959 5961 5962 5963 5966 5966 5968 5968
5866 5867 5868 5868 5872 5872 5877 5881 5882 5884 5885 5887 5891 5895 5901 5903 5908 5911 5915 5920 5922 5924 5926 5929 5933 5935 5938 5939 5942 5944 5945 5947 5949 5950 5952 5952 5953 5953 5954 5957 5959 5959 5961 5964 5965 5966 5967 5969 5969
5861 5863 5860 5866 5867 5868 5875 5880 5881 5882 5884 5884 5887 5895 5899 5902 5905 5909 5913 5918 5919 5923 5926 5928 5932 5935 5939 5944 5945 5944 5947 5948 5949 5952 5954 5954 5954 5956 5956 5957 5960 5963 5963 5963 5966 5968 5968 5969 5970
5853 5856 5858 5860 5862 5860 5874 5874 5875 5879 5878 5872 5880 5889 5894 5900 5905 5907 5911 5916 5918 5922 5924 5927 5930 5934 5938 5943 5947 5947 5946 5947 5950 5954 5955 5956 5955 5956 5955 5958 5960 5962 5966 5966 5966 5969 5969 5970 5970
5847 5850 5854 5857 5862 5869 5871 5868 5873 5875 5875 5876 5864 5879 5889 5897 5896 5901 5905 5909 5915 5919 5921 5926 5927 5930 5933 5940 5946 5948 5947 5948 5950 5954 5955 5956 5959 5959 5959 5961 5962 5963 5965 5968 5967 5969 5970 5972 5972
5841 5845 5854 5857 5861 5867 5865 5865 5872 5875 5878 5878 5878 5870 5884 5888 5893 5898 5902 5905 5910 5917 5919 5923 5927 5926 5930 5935 5942 5946 5947 5947 5951 5953 5954 5957 5958 5959 5959 5961 5964 5964 5965 5967 5967 5969 5970 5971 5973
5832 5839 5847 5850 5855 5859 5861 5863 5866 5872 5876 5877 5877 5877 5874 5881 5890 5895 5897 5899 5907 5915 5918 5921 5923 5926 5924 5926 5934 5942 5943 5946 5949 5952 5953 5956 5955 5958 5959 5962 5965 5963 5965 5967 5967 5967 5970 5971 5971
5831 5837 5841 5846 5850 5856 5858 5856 5862 5866 5870 5873 5876 5879 5879 5880 5889 5893 5893 5896 5902 5907 5914 5917 5917 5921 5925 5927 5926 5932 5938 5941 5946 5949 5951 5953 5954 5957 5960 5961 5963 5962 5964 5967 5966 5966 5968 5970 5972
5825 5833 5840 5843 5849 5850 5849 5850 5851 5860 5863 5868 5872 5875 5876 5881 5886 5890 5893 5894 5896 5902 5908 5911 5915 5917 5920 5925 5924 5929 5931 5934 5939 5944 5949 5950 5951 5955 5956 5957 5960 5960 5963 5965 5964 5965 5967 5968 5969